EZY78NT EGKK-LICJ

Flight info

Callsign EZY78NT
Flight time 2h 20m
Altitude 37000
Route SFD Y47 BENBO L612 HAWKE UL612 OGULO DCT OKASI DCT OKEKO DCT MOU DCT MADIV DCT MOKIP DCT TUFTA DCT KOGAS DCT MEDAM DCT NITAM DCT MOGBO DCT BAKRO DCT POKAV DCT BETOT DCT RUVIP DCT RONAB DCT GIANO
Aircraft A21N/M-SDE2E3FGHIRWXY/LB1

Departure

Time 2026-05-05 13:11
Airport London Gatwick Airport (EGKK)

Arrival

Time 2026-05-05 15:32
Airport Falcone–Borsellino Airport (LICJ)
Time Latitude Longitude Altitude Speed Heading
2026-05-05 13:09 51.14678 -0.21319 211 ft 1 kts 213°
2026-05-05 13:09 51.14626 -0.21333 211 ft 10 kts 171°
2026-05-05 13:09 51.14607 -0.21327 209 ft 2 kts 165°
2026-05-05 13:09 51.14555 -0.21291 210 ft 11 kts 142°
2026-05-05 13:10 51.14519 -0.21175 207 ft 12 kts 88°
2026-05-05 13:10 51.14520 -0.21163 208 ft 0 kts 81°
2026-05-05 13:10 51.14526 -0.21111 214 ft 25 kts 78°
2026-05-05 13:10 51.14625 -0.20400 211 ft 104 kts 77°
2026-05-05 13:11 51.14825 -0.18924 226 ft 163 kts 76°
2026-05-05 13:11 51.15076 -0.17083 757 ft 176 kts 76°
2026-05-05 13:11 51.15340 -0.15126 1567 ft 182 kts 75°
2026-05-05 13:11 51.15593 -0.13122 2329 ft 191 kts 75°
2026-05-05 13:12 51.15874 -0.10984 2937 ft 204 kts 76°
2026-05-05 13:12 51.15875 -0.08645 3488 ft 224 kts 105°
2026-05-05 13:12 51.15166 -0.06394 4126 ft 236 kts 126°
2026-05-05 13:12 51.13775 -0.04813 4673 ft 261 kts 159°
2026-05-05 13:13 51.11977 -0.04164 5448 ft 269 kts 168°
2026-05-05 13:13 51.10123 -0.03637 6304 ft 272 kts 168°
2026-05-05 13:13 51.08276 -0.02934 7133 ft 274 kts 163°
2026-05-05 13:13 51.06427 -0.02100 7962 ft 278 kts 162°
2026-05-05 13:14 51.04557 -0.01233 8813 ft 282 kts 162°
2026-05-05 13:14 51.02665 -0.00344 9671 ft 286 kts 163°
2026-05-05 13:14 51.00742 0.00558 10483 ft 291 kts 162°
2026-05-05 13:14 50.98792 0.01481 11265 ft 294 kts 162°
2026-05-05 13:15 50.96815 0.02416 12068 ft 298 kts 162°
2026-05-05 13:15 50.94815 0.03361 12880 ft 301 kts 162°
2026-05-05 13:15 50.92822 0.04304 13671 ft 305 kts 161°
2026-05-05 13:15 50.90749 0.05283 14379 ft 309 kts 161°
2026-05-05 13:16 50.88706 0.06246 15085 ft 312 kts 162°
2026-05-05 13:16 50.86615 0.07227 15810 ft 315 kts 161°
2026-05-05 13:16 50.84508 0.08220 16528 ft 318 kts 162°
2026-05-05 13:16 50.82378 0.09226 17248 ft 321 kts 162°
2026-05-05 13:17 50.80229 0.10230 17967 ft 324 kts 162°
2026-05-05 13:17 50.78055 0.11241 18619 ft 327 kts 163°
2026-05-05 13:17 50.75817 0.11965 19209 ft 331 kts 175°
2026-05-05 13:17 50.73489 0.11612 19577 ft 344 kts 192°
2026-05-05 13:18 50.71123 0.10655 19838 ft 359 kts 194°
2026-05-05 13:18 50.68661 0.09625 20101 ft 372 kts 194°
2026-05-05 13:18 50.66131 0.08626 20591 ft 377 kts 193°
2026-05-05 13:18 50.63565 0.07658 21160 ft 380 kts 192°
2026-05-05 13:19 50.60981 0.06709 21696 ft 383 kts 192°
2026-05-05 13:19 50.58375 0.05764 22204 ft 386 kts 192°
2026-05-05 13:19 50.55751 0.04817 22688 ft 389 kts 192°
2026-05-05 13:19 50.53106 0.03864 23152 ft 391 kts 192°
2026-05-05 13:20 50.50446 0.02909 23579 ft 393 kts 192°
2026-05-05 13:20 50.47750 0.02105 23941 ft 395 kts 185°
2026-05-05 13:20 50.45020 0.02272 24312 ft 394 kts 168°
2026-05-05 13:20 50.42444 0.03669 24708 ft 392 kts 152°
2026-05-05 13:21 50.40139 0.05940 25129 ft 392 kts 145°
2026-05-05 13:21 50.37896 0.08366 25524 ft 392 kts 145°
2026-05-05 13:21 50.35648 0.10770 25916 ft 392 kts 146°
2026-05-05 13:21 50.33381 0.13145 26257 ft 392 kts 146°
2026-05-05 13:22 50.31097 0.15504 26578 ft 394 kts 147°
2026-05-05 13:22 50.28837 0.17832 26879 ft 395 kts 147°
2026-05-05 13:22 50.26532 0.20198 27167 ft 397 kts 147°
2026-05-05 13:22 50.24218 0.22567 27444 ft 399 kts 147°
2026-05-05 13:23 50.21894 0.24948 27714 ft 400 kts 147°
2026-05-05 13:23 50.19562 0.27344 27979 ft 402 kts 147°
2026-05-05 13:23 50.17228 0.29747 28290 ft 402 kts 147°
2026-05-05 13:23 50.14890 0.32154 28588 ft 403 kts 147°
2026-05-05 13:24 50.12552 0.34556 28862 ft 404 kts 147°
2026-05-05 13:24 50.10198 0.36972 29112 ft 405 kts 147°
2026-05-05 13:24 50.07845 0.39389 29350 ft 406 kts 147°
2026-05-05 13:24 50.05478 0.41814 29599 ft 408 kts 147°
2026-05-05 13:25 50.03105 0.44238 29840 ft 409 kts 147°
2026-05-05 13:25 50.00723 0.46665 30064 ft 410 kts 147°
2026-05-05 13:25 49.98341 0.49098 30261 ft 411 kts 147°
2026-05-05 13:25 49.95947 0.51531 30442 ft 412 kts 147°
2026-05-05 13:26 49.93547 0.53970 30634 ft 413 kts 147°
2026-05-05 13:26 49.91138 0.56409 30814 ft 414 kts 147°
2026-05-05 13:26 49.88729 0.58858 30991 ft 415 kts 147°
2026-05-05 13:26 49.86311 0.61328 31168 ft 417 kts 146°
2026-05-05 13:27 49.83998 0.64049 31334 ft 418 kts 142°
2026-05-05 13:27 49.81740 0.66893 31506 ft 419 kts 142°
2026-05-05 13:27 49.79474 0.69747 31673 ft 420 kts 142°
2026-05-05 13:27 49.77231 0.72565 31838 ft 422 kts 142°
2026-05-05 13:28 49.74950 0.75429 31996 ft 423 kts 142°
2026-05-05 13:28 49.72668 0.78294 32180 ft 423 kts 142°
2026-05-05 13:28 49.70379 0.81160 32364 ft 424 kts 142°
2026-05-05 13:28 49.68085 0.84032 32525 ft 425 kts 142°
2026-05-05 13:29 49.65792 0.86900 32697 ft 425 kts 142°
2026-05-05 13:29 49.63494 0.89769 32879 ft 424 kts 142°
2026-05-05 13:29 49.61197 0.92631 33022 ft 424 kts 142°
2026-05-05 13:29 49.58903 0.95492 33173 ft 424 kts 142°
2026-05-05 13:30 49.56606 0.98347 33345 ft 424 kts 142°
2026-05-05 13:30 49.54314 1.01202 33514 ft 424 kts 142°
2026-05-05 13:30 49.52020 1.04053 33671 ft 423 kts 142°
2026-05-05 13:30 49.49730 1.06889 33858 ft 422 kts 142°
2026-05-05 13:31 49.47443 1.09715 34008 ft 421 kts 142°
2026-05-05 13:31 49.45264 1.12714 34117 ft 421 kts 137°
2026-05-05 13:31 49.41129 1.19112 34296 ft 422 kts 136°
2026-05-05 13:32 49.36970 1.25493 34466 ft 423 kts 136°
2026-05-05 13:32 49.32787 1.31848 34637 ft 424 kts 136°
2026-05-05 13:33 49.28590 1.38212 34780 ft 425 kts 136°
2026-05-05 13:33 49.24415 1.44539 34933 ft 425 kts 136°
2026-05-05 13:34 49.20196 1.50894 35093 ft 426 kts 136°
2026-05-05 13:34 49.15960 1.57254 35273 ft 427 kts 136°
2026-05-05 13:35 49.11719 1.63614 35434 ft 427 kts 137°
2026-05-05 13:35 49.07475 1.69958 35560 ft 427 kts 136°
2026-05-05 13:36 49.03219 1.76303 35640 ft 428 kts 136°
2026-05-05 13:36 48.98956 1.82647 35740 ft 429 kts 136°
2026-05-05 13:37 48.94679 1.88981 35846 ft 429 kts 137°
2026-05-05 13:37 48.90397 1.95321 35958 ft 431 kts 136°
2026-05-05 13:38 48.86091 2.01670 36115 ft 432 kts 136°
2026-05-05 13:38 48.81825 2.07950 36281 ft 432 kts 137°
2026-05-05 13:39 48.77502 2.14309 36434 ft 434 kts 137°
2026-05-05 13:39 48.73173 2.20633 36472 ft 434 kts 137°
2026-05-05 13:40 48.68824 2.26989 36471 ft 434 kts 137°
2026-05-05 13:40 48.64473 2.33332 36534 ft 434 kts 137°
2026-05-05 13:41 48.60131 2.39653 36613 ft 433 kts 137°
2026-05-05 13:41 48.55781 2.45949 36665 ft 434 kts 137°
2026-05-05 13:42 48.51418 2.52267 36722 ft 435 kts 137°
2026-05-05 13:42 48.47042 2.58588 36804 ft 436 kts 137°
2026-05-05 13:43 48.42656 2.64902 36809 ft 437 kts 137°
2026-05-05 13:43 48.38256 2.71221 36794 ft 438 kts 137°
2026-05-05 13:44 48.33848 2.77537 36795 ft 438 kts 138°
2026-05-05 13:44 48.29456 2.83809 36789 ft 439 kts 138°
2026-05-05 13:45 48.25014 2.90128 36778 ft 440 kts 138°
2026-05-05 13:45 48.20591 2.96406 36791 ft 441 kts 138°
2026-05-05 13:46 48.16124 3.02734 36793 ft 442 kts 138°
2026-05-05 13:46 48.11652 3.09072 36799 ft 443 kts 138°
2026-05-05 13:47 48.07162 3.15405 36800 ft 444 kts 139°
2026-05-05 13:47 48.02656 3.21743 36794 ft 445 kts 139°
2026-05-05 13:48 47.98139 3.28090 36799 ft 446 kts 139°
2026-05-05 13:48 47.93599 3.34421 36804 ft 447 kts 139°
2026-05-05 13:49 47.89046 3.40738 36789 ft 447 kts 139°
2026-05-05 13:49 47.84540 3.47034 36796 ft 447 kts 139°
2026-05-05 13:50 47.80006 3.53374 36800 ft 447 kts 139°
2026-05-05 13:50 47.75457 3.59688 36802 ft 448 kts 139°
2026-05-05 13:51 47.70897 3.65988 36807 ft 448 kts 139°
2026-05-05 13:51 47.66325 3.72285 36807 ft 449 kts 139°
2026-05-05 13:52 47.61748 3.78583 36813 ft 449 kts 139°
2026-05-05 13:52 47.57161 3.84873 36811 ft 449 kts 139°
2026-05-05 13:53 47.52572 3.91155 36816 ft 449 kts 140°
2026-05-05 13:53 47.47976 3.97433 36821 ft 450 kts 140°
2026-05-05 13:54 47.43406 4.03654 36825 ft 450 kts 140°
2026-05-05 13:54 47.38801 4.09907 36828 ft 450 kts 140°
2026-05-05 13:55 47.34198 4.16158 36815 ft 449 kts 140°
2026-05-05 13:55 47.29594 4.22373 36828 ft 449 kts 140°
2026-05-05 13:56 47.24989 4.28581 36830 ft 449 kts 140°
2026-05-05 13:56 47.20376 4.34782 36839 ft 449 kts 140°
2026-05-05 13:57 47.15761 4.40986 36835 ft 450 kts 140°
2026-05-05 13:57 47.11125 4.47174 36834 ft 450 kts 140°
2026-05-05 13:58 47.06483 4.53359 36817 ft 451 kts 141°
2026-05-05 13:58 47.01840 4.59538 36837 ft 451 kts 141°
2026-05-05 13:59 46.94854 4.68797 36840 ft 452 kts 141°
2026-05-05 14:00 46.88640 4.77003 36844 ft 452 kts 141°
2026-05-05 14:00 46.83213 4.84170 36841 ft 453 kts 141°
2026-05-05 14:01 46.78540 4.90336 36829 ft 453 kts 141°
2026-05-05 14:01 46.73870 4.96499 36841 ft 453 kts 141°
2026-05-05 14:02 46.69190 5.02635 36847 ft 453 kts 141°
2026-05-05 14:02 46.64499 5.08758 36851 ft 453 kts 141°
2026-05-05 14:03 46.59804 5.14873 36853 ft 453 kts 141°
2026-05-05 14:03 46.55109 5.20980 36856 ft 453 kts 142°
2026-05-05 14:04 46.50405 5.27071 36847 ft 453 kts 142°
2026-05-05 14:04 46.46497 5.32126 36859 ft 453 kts 142°
2026-05-05 14:05 46.41791 5.38200 36860 ft 453 kts 142°
2026-05-05 14:05 46.36607 5.45743 36866 ft 458 kts 134°
2026-05-05 14:06 46.32484 5.52787 36867 ft 459 kts 134°
2026-05-05 14:06 46.29044 5.58626 36867 ft 459 kts 134°
2026-05-05 14:07 46.24895 5.65639 36865 ft 459 kts 135°
2026-05-05 14:07 46.20735 5.72650 36878 ft 460 kts 135°
2026-05-05 14:08 46.16565 5.79657 36891 ft 461 kts 135°
2026-05-05 14:08 46.12374 5.86678 36877 ft 463 kts 135°
2026-05-05 14:09 46.08167 5.93716 36895 ft 464 kts 135°
2026-05-05 14:09 46.03959 6.00754 36893 ft 464 kts 135°
2026-05-05 14:10 45.99731 6.07789 36889 ft 466 kts 136°
2026-05-05 14:10 45.95490 6.14832 36902 ft 466 kts 136°
2026-05-05 14:11 45.91243 6.21860 36922 ft 466 kts 136°
2026-05-05 14:11 45.86994 6.28883 36909 ft 466 kts 136°
2026-05-05 14:12 45.82753 6.35883 36895 ft 464 kts 136°
2026-05-05 14:12 45.78034 6.41999 36882 ft 454 kts 150°
2026-05-05 14:13 45.72864 6.47206 36883 ft 455 kts 151°
2026-05-05 14:13 45.67688 6.52413 36878 ft 455 kts 150°
2026-05-05 14:14 45.62528 6.57638 36888 ft 454 kts 150°
2026-05-05 14:14 45.57412 6.62834 36879 ft 455 kts 150°
2026-05-05 14:15 45.52268 6.68059 36875 ft 453 kts 151°
2026-05-05 14:15 45.47121 6.73253 36900 ft 453 kts 151°
2026-05-05 14:16 45.41985 6.78423 36876 ft 449 kts 152°
2026-05-05 14:16 45.36877 6.83548 36910 ft 450 kts 152°
2026-05-05 14:17 45.31739 6.88673 36922 ft 452 kts 152°
2026-05-05 14:17 45.26592 6.93867 36930 ft 457 kts 148°
2026-05-05 14:18 45.21920 7.00111 36950 ft 462 kts 142°
2026-05-05 14:18 45.17321 7.06486 36974 ft 463 kts 142°
2026-05-05 14:19 45.12703 7.12833 36981 ft 461 kts 143°
2026-05-05 14:19 45.08509 7.19792 36995 ft 470 kts 132°
2026-05-05 14:20 45.04766 7.27403 36996 ft 472 kts 131°
2026-05-05 14:20 45.01031 7.34958 36979 ft 471 kts 132°
2026-05-05 14:21 44.97099 7.42303 36951 ft 463 kts 140°
2026-05-05 14:21 44.92613 7.48779 36944 ft 461 kts 141°
2026-05-05 14:22 44.88108 7.55237 36957 ft 462 kts 141°
2026-05-05 14:22 44.83607 7.61712 36948 ft 462 kts 141°
2026-05-05 14:23 44.79104 7.68175 36966 ft 462 kts 141°
2026-05-05 14:23 44.74595 7.74619 36973 ft 462 kts 141°
2026-05-05 14:24 44.70087 7.81060 36973 ft 462 kts 141°
2026-05-05 14:24 44.65573 7.87493 36979 ft 463 kts 141°
2026-05-05 14:25 44.61041 7.93929 36950 ft 464 kts 141°
2026-05-05 14:25 44.56499 8.00371 36935 ft 465 kts 141°
2026-05-05 14:26 44.51977 8.06770 36946 ft 465 kts 141°
2026-05-05 14:26 44.47417 8.13210 36946 ft 466 kts 141°
2026-05-05 14:27 44.42848 8.19642 36947 ft 466 kts 141°
2026-05-05 14:27 44.38274 8.26064 36947 ft 466 kts 141°
2026-05-05 14:28 44.33695 8.32468 36946 ft 466 kts 141°
2026-05-05 14:28 44.29113 8.38869 36943 ft 466 kts 141°
2026-05-05 14:29 44.24519 8.45272 36957 ft 467 kts 141°
2026-05-05 14:29 44.19917 8.51682 36939 ft 468 kts 141°
2026-05-05 14:30 44.15305 8.58092 36956 ft 469 kts 141°
2026-05-05 14:30 44.10679 8.64493 36958 ft 469 kts 141°
2026-05-05 14:31 44.06044 8.70897 36941 ft 470 kts 141°
2026-05-05 14:31 44.01392 8.77310 36947 ft 472 kts 142°
2026-05-05 14:32 43.96721 8.83735 36949 ft 473 kts 142°
2026-05-05 14:32 43.92033 8.90163 36949 ft 474 kts 142°
2026-05-05 14:33 43.87339 8.96591 36931 ft 475 kts 142°
2026-05-05 14:33 43.82628 9.03022 36947 ft 476 kts 142°
2026-05-05 14:34 43.77932 9.09415 36933 ft 477 kts 142°
2026-05-05 14:34 43.73191 9.15864 36949 ft 478 kts 142°
2026-05-05 14:35 43.68440 9.22311 36955 ft 479 kts 142°
2026-05-05 14:35 43.63681 9.28750 36948 ft 479 kts 142°
2026-05-05 14:36 43.58910 9.35192 36958 ft 480 kts 142°
2026-05-05 14:36 43.54587 9.41016 36964 ft 481 kts 142°
2026-05-05 14:37 43.49799 9.47452 36950 ft 481 kts 142°
2026-05-05 14:37 43.44996 9.53892 36965 ft 483 kts 143°
2026-05-05 14:38 43.40175 9.60337 36959 ft 484 kts 143°
2026-05-05 14:38 43.35340 9.66788 36971 ft 485 kts 143°
2026-05-05 14:39 43.30492 9.73242 36971 ft 486 kts 143°
2026-05-05 14:39 43.25668 9.79647 36969 ft 486 kts 143°
2026-05-05 14:40 43.20804 9.86088 36961 ft 485 kts 143°
2026-05-05 14:40 43.18224 9.88995 36951 ft 474 kts 154°
2026-05-05 14:40 43.15371 9.91166 36966 ft 466 kts 161°
2026-05-05 14:41 43.09524 9.95002 36971 ft 467 kts 162°
2026-05-05 14:41 43.03672 9.98870 36970 ft 468 kts 161°
2026-05-05 14:42 42.97818 10.02772 36950 ft 468 kts 161°
2026-05-05 14:42 42.91960 10.06672 36968 ft 469 kts 161°
2026-05-05 14:43 42.86093 10.10567 36966 ft 469 kts 161°
2026-05-05 14:43 42.80257 10.14437 36966 ft 470 kts 161°
2026-05-05 14:44 42.74383 10.18321 36964 ft 470 kts 161°
2026-05-05 14:44 42.68500 10.22203 36953 ft 470 kts 161°
2026-05-05 14:45 42.62618 10.26077 36970 ft 470 kts 161°
2026-05-05 14:45 42.56724 10.29948 36976 ft 471 kts 161°
2026-05-05 14:46 42.50830 10.33814 36968 ft 471 kts 161°
2026-05-05 14:46 42.44925 10.37675 36974 ft 471 kts 161°
2026-05-05 14:47 42.39015 10.41534 36979 ft 472 kts 161°
2026-05-05 14:47 42.33103 10.45385 36980 ft 472 kts 161°
2026-05-05 14:48 42.27185 10.49235 36982 ft 472 kts 161°
2026-05-05 14:48 42.21266 10.53076 36978 ft 472 kts 161°
2026-05-05 14:49 42.15344 10.56911 36986 ft 472 kts 161°
2026-05-05 14:49 42.09420 10.60740 36981 ft 472 kts 161°
2026-05-05 14:50 42.03485 10.64562 36985 ft 473 kts 161°
2026-05-05 14:50 41.97541 10.68387 36989 ft 474 kts 161°
2026-05-05 14:51 41.91631 10.72181 36994 ft 474 kts 161°
2026-05-05 14:51 41.85669 10.76000 36991 ft 474 kts 162°
2026-05-05 14:52 41.79711 10.79811 36996 ft 475 kts 162°
2026-05-05 14:52 41.73749 10.83614 36996 ft 475 kts 162°
2026-05-05 14:53 41.67784 10.87413 36982 ft 475 kts 162°
2026-05-05 14:53 41.61820 10.91202 36996 ft 475 kts 162°
2026-05-05 14:54 41.55850 10.94989 37005 ft 475 kts 162°
2026-05-05 14:54 41.49876 10.98769 37004 ft 475 kts 162°
2026-05-05 14:55 41.43900 11.02547 37003 ft 475 kts 162°
2026-05-05 14:55 41.37920 11.06314 37012 ft 475 kts 162°
2026-05-05 14:56 41.31936 11.10074 37010 ft 476 kts 162°
2026-05-05 14:56 41.25949 11.13836 37045 ft 477 kts 158°
2026-05-05 14:57 41.19964 11.17600 37053 ft 476 kts 162°
2026-05-05 14:57 41.13974 11.21340 37023 ft 476 kts 162°
2026-05-05 14:58 41.08026 11.25048 37007 ft 475 kts 162°
2026-05-05 14:58 41.02050 11.28773 37012 ft 475 kts 162°
2026-05-05 14:59 40.96070 11.32487 37014 ft 475 kts 161°
2026-05-05 14:59 40.90080 11.36202 37023 ft 476 kts 161°
2026-05-05 15:00 40.85092 11.39287 37022 ft 476 kts 162°
2026-05-05 15:00 40.78991 11.42550 37024 ft 473 kts 165°
2026-05-05 15:01 40.72850 11.45692 37018 ft 474 kts 165°
2026-05-05 15:01 40.66698 11.48844 37025 ft 475 kts 165°
2026-05-05 15:02 40.60536 11.51996 37026 ft 475 kts 165°
2026-05-05 15:02 40.54371 11.55146 37011 ft 476 kts 165°
2026-05-05 15:03 40.48201 11.58287 37024 ft 476 kts 165°
2026-05-05 15:03 40.42028 11.61425 37028 ft 476 kts 165°
2026-05-05 15:04 40.35844 11.64561 37029 ft 476 kts 165°
2026-05-05 15:04 40.29661 11.67683 37015 ft 476 kts 165°
2026-05-05 15:05 40.20382 11.72360 37030 ft 477 kts 165°
2026-05-05 15:06 40.14225 11.75457 37036 ft 478 kts 165°
2026-05-05 15:06 40.08020 11.78570 37036 ft 478 kts 165°
2026-05-05 15:07 40.01812 11.81683 37033 ft 478 kts 165°
2026-05-05 15:07 39.95596 11.84795 37033 ft 478 kts 165°
2026-05-05 15:08 39.89375 11.87905 36950 ft 480 kts 165°
2026-05-05 15:08 39.83175 11.91237 36806 ft 484 kts 162°
2026-05-05 15:09 39.76984 11.94734 36677 ft 485 kts 162°
2026-05-05 15:09 39.73947 11.96455 36422 ft 470 kts 162°
2026-05-05 15:09 39.70949 11.98142 35592 ft 471 kts 162°
2026-05-05 15:09 39.67951 11.99825 34908 ft 468 kts 162°
2026-05-05 15:10 39.64983 12.01493 34353 ft 462 kts 162°
2026-05-05 15:10 39.62045 12.03142 33709 ft 458 kts 162°
2026-05-05 15:10 39.59127 12.04776 33081 ft 455 kts 162°
2026-05-05 15:10 39.56239 12.06392 32489 ft 450 kts 162°
2026-05-05 15:11 39.53377 12.07991 31886 ft 446 kts 162°
2026-05-05 15:11 39.50537 12.09577 31322 ft 442 kts 162°
2026-05-05 15:11 39.47720 12.11146 30741 ft 439 kts 162°
2026-05-05 15:11 39.44931 12.12701 30196 ft 435 kts 162°
2026-05-05 15:12 39.42165 12.14245 29586 ft 431 kts 162°
2026-05-05 15:12 39.39426 12.15771 28976 ft 427 kts 162°
2026-05-05 15:12 39.36715 12.17280 28386 ft 422 kts 162°
2026-05-05 15:12 39.34024 12.18776 27766 ft 419 kts 162°
2026-05-05 15:13 39.31353 12.20259 27162 ft 417 kts 162°
2026-05-05 15:13 39.28735 12.21709 26627 ft 413 kts 162°
2026-05-05 15:13 39.26102 12.23167 26052 ft 410 kts 162°
2026-05-05 15:13 39.23488 12.24615 25514 ft 407 kts 162°
2026-05-05 15:14 39.20897 12.26048 24969 ft 405 kts 162°
2026-05-05 15:14 39.18317 12.27474 24453 ft 401 kts 162°
2026-05-05 15:14 39.15760 12.28888 23919 ft 399 kts 162°
2026-05-05 15:14 39.13224 12.30288 23427 ft 393 kts 162°
2026-05-05 15:15 39.10719 12.31667 22820 ft 390 kts 161°
2026-05-05 15:15 39.08240 12.33033 22250 ft 385 kts 161°
2026-05-05 15:15 39.05793 12.34381 21641 ft 381 kts 161°
2026-05-05 15:15 39.03369 12.35717 21085 ft 376 kts 161°
2026-05-05 15:16 39.00970 12.37038 20472 ft 373 kts 161°
2026-05-05 15:16 38.98599 12.38344 19933 ft 368 kts 161°
2026-05-05 15:16 38.96251 12.39632 19357 ft 365 kts 161°
2026-05-05 15:16 38.93928 12.40907 18822 ft 361 kts 160°
2026-05-05 15:17 38.91624 12.42170 18221 ft 359 kts 160°
2026-05-05 15:17 38.89340 12.43422 17660 ft 354 kts 161°
2026-05-05 15:17 38.87084 12.44664 17036 ft 352 kts 160°
2026-05-05 15:17 38.84866 12.45974 16507 ft 348 kts 159°
2026-05-05 15:18 38.82675 12.47297 15779 ft 350 kts 159°
2026-05-05 15:18 38.80469 12.48626 15100 ft 351 kts 159°
2026-05-05 15:18 38.78441 12.49847 14530 ft 351 kts 159°
2026-05-05 15:18 38.78142 12.50028 14449 ft 351 kts 159°
2026-05-05 15:19 38.75950 12.51349 13871 ft 353 kts 159°
2026-05-05 15:19 38.73734 12.52682 13243 ft 351 kts 159°
2026-05-05 15:19 38.71520 12.54010 12528 ft 352 kts 159°
2026-05-05 15:19 38.69306 12.55336 11876 ft 352 kts 159°
2026-05-05 15:20 38.67086 12.56667 11315 ft 353 kts 159°
2026-05-05 15:20 38.64865 12.57997 10894 ft 353 kts 159°
2026-05-05 15:20 38.62639 12.59330 10523 ft 353 kts 159°
2026-05-05 15:20 38.60413 12.60653 10104 ft 352 kts 160°
2026-05-05 15:21 38.58182 12.61954 9577 ft 354 kts 160°
2026-05-05 15:21 38.55937 12.63260 9190 ft 355 kts 159°
2026-05-05 15:21 38.53688 12.64569 8844 ft 356 kts 159°
2026-05-05 15:21 38.51436 12.65881 8516 ft 356 kts 159°
2026-05-05 15:22 38.49181 12.67196 8194 ft 356 kts 159°
2026-05-05 15:22 38.46926 12.68509 7876 ft 357 kts 159°
2026-05-05 15:22 38.44668 12.69824 7559 ft 357 kts 158°
2026-05-05 15:22 38.42439 12.71120 7243 ft 357 kts 158°
2026-05-05 15:23 38.40185 12.72429 6928 ft 356 kts 157°
2026-05-05 15:23 38.37933 12.73735 6619 ft 356 kts 157°
2026-05-05 15:23 38.35680 12.75042 6305 ft 356 kts 157°
2026-05-05 15:23 38.33429 12.76348 5977 ft 356 kts 157°
2026-05-05 15:24 38.31183 12.77653 5639 ft 354 kts 157°
2026-05-05 15:24 38.28959 12.78941 5079 ft 350 kts 156°
2026-05-05 15:24 38.26758 12.80212 4431 ft 342 kts 156°
2026-05-05 15:24 38.24665 12.81422 3931 ft 318 kts 155°
2026-05-05 15:25 38.22717 12.82549 3544 ft 296 kts 155°
2026-05-05 15:25 38.20914 12.83591 3210 ft 273 kts 155°
2026-05-05 15:25 38.19257 12.84546 2921 ft 250 kts 155°
2026-05-05 15:25 38.17736 12.85424 2641 ft 230 kts 155°
2026-05-05 15:26 38.16337 12.86231 2394 ft 212 kts 155°
2026-05-05 15:26 38.15045 12.86978 2262 ft 198 kts 155°
2026-05-05 15:26 38.13827 12.87681 2298 ft 189 kts 155°
2026-05-05 15:26 38.12639 12.88368 2301 ft 187 kts 155°
2026-05-05 15:27 38.11549 12.89258 2300 ft 189 kts 131°
2026-05-05 15:27 38.11145 12.90814 2286 ft 192 kts 88°
2026-05-05 15:27 38.11646 12.92363 2315 ft 185 kts 59°
2026-05-05 15:27 38.12280 12.93676 2314 ft 168 kts 62°
2026-05-05 15:28 38.12798 12.94998 2299 ft 167 kts 66°
2026-05-05 15:28 38.13269 12.96329 2233 ft 167 kts 68°
2026-05-05 15:28 38.13730 12.97682 2013 ft 166 kts 68°
2026-05-05 15:28 38.14168 12.98986 1743 ft 154 kts 69°
2026-05-05 15:29 38.14559 13.00198 1462 ft 143 kts 69°
2026-05-05 15:29 38.14924 13.01373 1299 ft 142 kts 68°
2026-05-05 15:29 38.15325 13.02514 1148 ft 140 kts 66°
2026-05-05 15:29 38.15729 13.03624 999 ft 137 kts 65°
2026-05-05 15:30 38.16123 13.04719 801 ft 137 kts 65°
2026-05-05 15:30 38.16475 13.05844 593 ft 136 kts 68°
2026-05-05 15:30 38.16833 13.06933 415 ft 132 kts 65°
2026-05-05 15:30 38.17195 13.07987 227 ft 129 kts 65°
2026-05-05 15:31 38.17555 13.09036 91 ft 130 kts 66°
2026-05-05 15:31 38.17878 13.09987 72 ft 94 kts 66°
2026-05-05 15:31 38.18064 13.10539 70 ft 54 kts 67°
2026-05-05 15:31 38.18203 13.10956 73 ft 50 kts 66°
2026-05-05 15:32 38.18361 13.11422 75 ft 61 kts 66°
2026-05-05 15:32 38.18490 13.11809 75 ft 27 kts 67°
2026-05-05 15:32 38.18577 13.11881 73 ft 16 kts 320°
2026-05-05 15:32 38.18603 13.11741 73 ft 17 kts 277°
2026-05-05 15:33 38.18617 13.11583 67 ft 19 kts 266°
2026-05-05 15:33 38.18570 13.11423 65 ft 20 kts 247°
2026-05-05 15:33 38.18536 13.11323 69 ft 4 kts 247°
2026-05-05 15:33 38.18524 13.11284 69 ft 6 kts 247°
2026-05-05 15:34 38.18517 13.11223 69 ft 9 kts 297°
2026-05-05 15:34 38.18552 13.11152 61 ft 11 kts 273°
2026-05-05 15:34 38.18525 13.11058 67 ft 13 kts 245°
2026-05-05 15:34 38.18503 13.10995 66 ft 16 kts 246°
2026-05-05 15:35 38.18474 13.10856 67 ft 18 kts 287°
2026-05-05 15:35 38.18498 13.10775 64 ft 0 kts 290°
2026-05-05 15:36 38.18499 13.10771 65 ft 2 kts 290°
2026-05-05 15:36 38.18505 13.10748 70 ft 4 kts 284°
2026-05-05 15:36 38.18506 13.10731 70 ft 0 kts 269°
2026-05-05 15:37 38.18506 13.10722 70 ft 3 kts 273°
2026-05-05 15:37 38.18518 13.10691 67 ft 4 kts 317°
2026-05-05 15:37 38.18534 13.10681 69 ft 2 kts 340°
2026-05-05 15:37 38.18543 13.10677 66 ft 0 kts 337°
2026-05-05 15:38 38.18548 13.10674 70 ft 2 kts 338°
2026-05-05 15:38 38.18560 13.10667 66 ft 1 kts 337°
2026-05-05 15:38 38.18562 13.10667 67 ft 0 kts 338°